• în România
  • Lista ţărilor
  • Pe 7 zile
  • Temperatura apei
  • Hartă satelitară
  • Meteo pe hartă
  • Widget-uri
  • user-avatar
    Intrare

    Meteo pe oră la Algiers

    Astăzi, 23 Septembrie, Sâmbătă

    Timp Temperatura Precipitaţii Vânt Presiune Umiditate
    00:00 +29°C° 0 mm 5 m/s 750 mmHg 44%
    01:00 +28°C° 0 mm 5 m/s 750 mmHg 44%
    02:00 +28°C° 0 mm 5 m/s 749 mmHg 44%
    03:00 +28°C° 0 mm 5 m/s 749 mmHg 44%
    04:00 +28°C° 0 mm 5 m/s 749 mmHg 44%
    05:00 +27°C° 0 mm 4 m/s 749 mmHg 44%
    06:00 +27°C° 0 mm 4 m/s 750 mmHg 46%
    07:00 +29°C° 0 mm 5 m/s 750 mmHg 40%
    08:00 +32°C° 0 mm 5 m/s 750 mmHg 34%
    09:00 +34°C° 0 mm 5 m/s 750 mmHg 28%
    10:00 +35°C° 0 mm 5 m/s 750 mmHg 26%
    11:00 +36°C° 0 mm 5 m/s 750 mmHg 23%
    12:00 +37°C° 0 mm 5 m/s 750 mmHg 20%
    13:00 +36°C° 0 mm 5 m/s 749 mmHg 24%
    14:00 +35°C° 0 mm 6 m/s 749 mmHg 28%
    15:00 +35°C° 0 mm 6 m/s 749 mmHg 32%
    16:00 +33°C° 0 mm 5 m/s 749 mmHg 41%
    17:00 +30°C° 0 mm 4 m/s 749 mmHg 49%
    18:00 +28°C° 0 mm 4 m/s 749 mmHg 58%
    19:00 +28°C° 0 mm 4 m/s 750 mmHg 63%
    20:00 +27°C° 0 mm 3 m/s 750 mmHg 69%
    21:00 +26°C° 0 mm 3 m/s 751 mmHg 75%
    22:00 +26°C° 0 mm 3 m/s 751 mmHg 78%
    23:00 +25°C° 0 mm 3 m/s 751 mmHg 82%

    Mâine, 24 Septembrie, Duminică

    Timp Temperatura Precipitaţii Vânt Presiune Umiditate
    00:00 +25°C° 0 mm 3 m/s 751 mmHg 86%
    01:00 +24°C° 0 mm 2 m/s 751 mmHg 88%
    02:00 +24°C° 0 mm 2 m/s 751 mmHg 90%
    03:00 +24°C° 0 mm 2 m/s 751 mmHg 92%
    04:00 +24°C° 0 mm 2 m/s 751 mmHg 90%
    05:00 +24°C° 0 mm 2 m/s 751 mmHg 89%
    06:00 +24°C° 0 mm 2 m/s 751 mmHg 88%
    07:00 +25°C° 0 mm 2 m/s 752 mmHg 81%
    08:00 +26°C° 0 mm 2 m/s 752 mmHg 74%
    09:00 +27°C° 0 mm 2 m/s 752 mmHg 67%
    10:00 +28°C° 0 mm 2 m/s 752 mmHg 61%
    11:00 +29°C° 0 mm 3 m/s 752 mmHg 54%
    12:00 +30°C° 0 mm 3 m/s 752 mmHg 48%
    13:00 +30°C° 0 mm 4 m/s 752 mmHg 49%
    14:00 +30°C° 0 mm 4 m/s 752 mmHg 49%
    15:00 +30°C° 0 mm 4 m/s 751 mmHg 50%
    16:00 +29°C° 0 mm 4 m/s 751 mmHg 55%
    17:00 +28°C° 0 mm 3 m/s 751 mmHg 61%
    18:00 +26°C° 0 mm 3 m/s 751 mmHg 66%
    19:00 +26°C° 0 mm 3 m/s 752 mmHg 70%
    20:00 +25°C° 0 mm 3 m/s 752 mmHg 74%
    21:00 +24°C° 0 mm 2 m/s 752 mmHg 77%
    22:00 +24°C° 0 mm 2 m/s 752 mmHg 77%
    23:00 +24°C° 0 mm 2 m/s 752 mmHg 77%

    Poimâine, 25 Septembrie, Luni

    Timp Temperatura Precipitaţii Vânt Presiune Umiditate
    00:00 +23°C° 0 mm 2 m/s 751 mmHg 77%
    01:00 +23°C° 0 mm 2 m/s 751 mmHg 73%
    02:00 +23°C° 0 mm 2 m/s 751 mmHg 69%
    03:00 +23°C° 0 mm 1 m/s 750 mmHg 65%
    04:00 +23°C° 0 mm 1 m/s 750 mmHg 61%
    05:00 +23°C° 0 mm 1 m/s 750 mmHg 56%
    06:00 +22°C° 0 mm 1 m/s 750 mmHg 52%
    07:00 +25°C° 0 mm 1 m/s 751 mmHg 43%
    08:00 +27°C° 0 mm 1 m/s 751 mmHg 35%
    09:00 +29°C° 0 mm 1 m/s 751 mmHg 26%
    10:00 +30°C° 0 mm 2 m/s 751 mmHg 24%
    11:00 +31°C° 0 mm 2 m/s 751 mmHg 22%
    12:00 +32°C° 0 mm 2 m/s 751 mmHg 21%
    13:00 +33°C° 0 mm 3 m/s 751 mmHg 21%
    14:00 +33°C° 0 mm 3 m/s 750 mmHg 22%
    15:00 +33°C° 0 mm 3 m/s 750 mmHg 23%
    16:00 +31°C° 0 mm 3 m/s 750 mmHg 27%
    17:00 +29°C° 0 mm 3 m/s 750 mmHg 31%
    18:00 +28°C° 0 mm 2 m/s 750 mmHg 35%
    19:00 +27°C° 0 mm 2 m/s 750 mmHg 37%
    20:00 +26°C° 0 mm 2 m/s 750 mmHg 39%
    21:00 +25°C° 0 mm 2 m/s 751 mmHg 41%
    22:00 +25°C° 0 mm 2 m/s 751 mmHg 40%
    23:00 +25°C° 0 mm 2 m/s 750 mmHg 39%

    26 Septembrie, Marţi

    Timp Temperatura Precipitaţii Vânt Presiune Umiditate
    00:00 +25°C° 0 mm 2 m/s 750 mmHg 38%
    01:00 +25°C° 0 mm 1 m/s 750 mmHg 37%
    02:00 +24°C° 0 mm 1 m/s 750 mmHg 36%
    03:00 +24°C° 0 mm 1 m/s 750 mmHg 35%
    04:00 +24°C° 0 mm 1 m/s 750 mmHg 34%
    05:00 +24°C° 0 mm 1 m/s 750 mmHg 34%
    06:00 +23°C° 0 mm 1 m/s 750 mmHg 34%
    07:00 +26°C° 0 mm 1 m/s 750 mmHg 30%
    08:00 +28°C° 0 mm 1 m/s 750 mmHg 26%
    09:00 +30°C° 0 mm 1 m/s 750 mmHg 22%
    10:00 +31°C° 0 mm 1 m/s 750 mmHg 21%
    11:00 +32°C° 0 mm 2 m/s 750 mmHg 20%
    12:00 +34°C° 0 mm 2 m/s 750 mmHg 18%
    13:00 +34°C° 0 mm 3 m/s 749 mmHg 19%
    14:00 +34°C° 0 mm 3 m/s 749 mmHg 20%
    15:00 +34°C° 0 mm 4 m/s 749 mmHg 21%
    16:00 +32°C° 0 mm 4 m/s 749 mmHg 27%
    17:00 +29°C° 0 mm 3 m/s 749 mmHg 32%
    18:00 +28°C° 0 mm 3 m/s 749 mmHg 37%
    19:00 +27°C° 0 mm 3 m/s 749 mmHg 40%
    20:00 +26°C° 0 mm 3 m/s 750 mmHg 43%
    21:00 +26°C° 0 mm 3 m/s 750 mmHg 47%
    22:00 +25°C° 0 mm 3 m/s 750 mmHg 46%
    23:00 +25°C° 0 mm 2 m/s 750 mmHg 45%

    27 Septembrie, Miercuri

    Timp Temperatura Precipitaţii Vânt Presiune Umiditate
    00:00 +25°C° 0 mm 2 m/s 750 mmHg 45%
    01:00 +25°C° 0 mm 2 m/s 750 mmHg 44%
    02:00 +24°C° 0 mm 2 m/s 750 mmHg 44%
    03:00 +24°C° 0 mm 2 m/s 749 mmHg 44%
    04:00 +24°C° 0 mm 3 m/s 750 mmHg 45%
    05:00 +24°C° 0 mm 3 m/s 750 mmHg 46%
    06:00 +24°C° 0 mm 3 m/s 750 mmHg 47%
    07:00 +26°C° 0 mm 3 m/s 751 mmHg 42%
    08:00 +28°C° 0 mm 3 m/s 751 mmHg 38%
    09:00 +30°C° 0 mm 4 m/s 751 mmHg 33%
    10:00 +32°C° 0 mm 4 m/s 751 mmHg 31%
    11:00 +33°C° 0 mm 4 m/s 751 mmHg 30%
    12:00 +34°C° 0 mm 5 m/s 751 mmHg 29%
    13:00 +33°C° 0 mm 5 m/s 751 mmHg 31%
    14:00 +33°C° 0 mm 6 m/s 751 mmHg 33%
    15:00 +33°C° 0 mm 6 m/s 751 mmHg 35%
    16:00 +30°C° 0 mm 6 m/s 751 mmHg 42%
    17:00 +28°C° 0 mm 5 m/s 751 mmHg 49%
    18:00 +27°C° 0 mm 5 m/s 751 mmHg 56%
    19:00 +26°C° 0 mm 5 m/s 752 mmHg 61%
    20:00 +25°C° 0 mm 4 m/s 752 mmHg 65%
    21:00 +23°C° 0 mm 4 m/s 753 mmHg 70%
    22:00 +23°C° 0 mm 4 m/s 753 mmHg 72%
    23:00 +23°C° 0 mm 4 m/s 753 mmHg 73%

    28 Septembrie, Joi

    Timp Temperatura Precipitaţii Vânt Presiune Umiditate
    00:00 +22°C° 0 mm 4 m/s 753 mmHg 75%
    01:00 +22°C° 0 mm 4 m/s 753 mmHg 75%
    02:00 +22°C° 0 mm 4 m/s 753 mmHg 75%
    03:00 +21°C° 0 mm 4 m/s 753 mmHg 76%
    04:00 +21°C° 0 mm 4 m/s 753 mmHg 76%
    05:00 +21°C° 0 mm 4 m/s 753 mmHg 77%
    06:00 +21°C° 0 mm 4 m/s 754 mmHg 77%
    07:00 +22°C° 0 mm 4 m/s 754 mmHg 69%
    08:00 +25°C° 0 mm 4 m/s 754 mmHg 61%
    09:00 +27°C° 0 mm 5 m/s 755 mmHg 53%
    10:00 +28°C° 0 mm 5 m/s 754 mmHg 49%
    11:00 +29°C° 0 mm 5 m/s 754 mmHg 45%
    12:00 +30°C° 0 mm 6 m/s 754 mmHg 41%
    13:00 +29°C° 0 mm 6 m/s 754 mmHg 42%
    14:00 +29°C° 0 mm 6 m/s 754 mmHg 43%
    15:00 +29°C° 0 mm 6 m/s 754 mmHg 44%
    16:00 +27°C° 0 mm 6 m/s 754 mmHg 50%
    17:00 +26°C° 0 mm 5 m/s 754 mmHg 56%
    18:00 +25°C° 0 mm 5 m/s 754 mmHg 63%
    19:00 +23°C° 0 mm 5 m/s 754 mmHg 67%
    20:00 +22°C° 0 mm 4 m/s 755 mmHg 71%
    21:00 +21°C° 0 mm 4 m/s 755 mmHg 75%
    22:00 +21°C° 0 mm 4 m/s 755 mmHg 77%
    23:00 +21°C° 0 mm 4 m/s 755 mmHg 79%
    Arată mai mult